SB KEPS @ AMSAT $ORB12088.N 2Line Orbital Elements 12088.AMSAT
HR AMSAT ORBITAL ELEMENTS FOR AMATEUR SATELLITES IN NASA FORMAT FROM WA5QGD FORT WORTH,TX March 28, 2012 Send SUBSCRIBE KEPS/UNSUBSCRIBE KEPS to majordomo@amsat.org only BID: ORB12088.N
DECODE 2-LINE ELSETS WITH THE FOLLOWING KEY: 1 AAAAAU 00 0 0 BBBBB.BBBBBBBB .CCCCCCCC 00000-0 00000-0 0 DDDZ 2 AAAAA EEE.EEEE FFF.FFFF GGGGGGG HHH.HHHH III.IIII JJ.JJJJJJJJKKKKKZ KEY: A-CATALOGNUM B-EPOCHTIME C-DECAY D-ELSETNUM E-INCLINATION F-RAAN G-ECCENTRICITY H-ARGPERIGEE I-MNANOM J-MNMOTION K-ORBITNUM Z-CHECKSUM
TO ALL RADIO AMATEURS BT
AO-07 1 07530U 74089B 12087.90330607 -.00000027 00000-0 10000-3 0 3414 2 07530 101.4017 088.2586 0012110 081.5166 278.7279 12.53588455709868 FO-29 1 24278U 96046B 12087.83945049 .00000015 00000-0 53913-4 0 8066 2 24278 098.5776 199.1588 0349759 239.8475 116.7579 13.52979003770956 SO-33 1 25509U 98061B 12087.37721390 .00000010 00000-0 -12295-4 0 01958 2 25509 031.4327 076.6369 0353023 207.4980 150.6553 14.28685640700945 RS-22 1 27939U 03042A 12087.73226885 .00000490 00000-0 10192-3 0 02114 2 27939 097.8187 292.6999 0013721 159.3038 200.8729 14.63945717453963 VO-52 1 28650U 05017B 12087.60898753 .00001279 00000-0 16371-3 0 00618 2 28650 097.6056 122.5311 0025651 310.8334 049.0643 14.82773600372884 HO-68 1 36122U 09072B 12088.34352941 -.00000044 00000-0 00000 0 0 3253 2 36122 100.3701 149.2927 0007121 295.3162 064.7213 13.16294185109756 UO-11 1 14781U 84021B 12087.94539045 .00000673 00000-0 95122-4 0 08317 2 14781 097.9644 148.1477 0008038 301.6159 058.4271 14.80359602507915 AO-16 1 20439U 90005D 12087.96800585 .00000092 00000-0 50210-4 0 04337 2 20439 098.4223 033.6477 0011788 042.6977 317.5118 14.32030531158370 LO-19 1 20442U 90005G 12087.86365131 .00000084 00000-0 46923-4 0 03609 2 20442 098.3884 036.8401 0012593 035.4164 324.7848 14.32250342158544 AO-27 1 22825U 93061C 12087.90970390 .00000044 00000-0 34289-4 0 00712 2 22825 098.5682 032.0202 0008738 153.4308 206.7320 14.29440716964869 IO-26 1 22826U 93061D 12087.92609698 .00000084 00000-0 49562-4 0 08212 2 22826 098.5617 032.4273 0009143 147.1648 213.0102 14.29712799964994 GO-32 1 25397U 98043D 12088.48142228 .00000064 00000-0 46459-4 0 7361 2 25397 098.3563 071.1931 0001662 126.6667 233.4673 14.23264511712549 NO-44 1 26931U 01043C 12087.61789096 .00000141 00000-0 87054-4 0 22 2 26931 067.0542 330.5693 0006851 276.3924 083.6400 14.29774999547580 SO-50 1 27607U 02058C 12086.71181244 .00000628 00000-0 11548-3 0 07235 2 27607 064.5594 185.7688 0085039 264.8589 094.2787 14.72276190497823 CO-55 1 27844U 03031E 12088.01797328 .00000193 00000-0 10927-3 0 3380 2 27844 098.7056 097.5753 0010686 096.3309 263.9081 14.20983239453360 CO-57 1 27848U 03031J 12088.00756339 .00000148 00000-0 89010-4 0 2895 2 27848 098.7138 096.8624 0010675 100.4267 259.8103 14.20739917453307 AO-51 1 28375U 04025K 12087.41863509 .00000278 00000-0 96134-4 0 02289 2 28375 098.1375 056.5388 0083216 289.4003 069.8188 14.40918972406994 CP3 1 31129U 07012N 12088.44410342 .00000831 00000-0 19866-3 0 1264 2 31129 097.8863 100.9721 0101863 015.2272 345.1939 14.52956174262252 CO-65 1 32785U 08021C 12088.33936049 .00001241 00000-0 15973-3 0 2654 2 32785 097.8080 151.2818 0014287 329.9642 030.0836 14.82783996211788 PRISM 1 33493U 09002B 12088.46652852 .00002598 00000-0 32233-3 0 5547 2 33493 098.1584 227.1891 0018824 195.2959 164.7699 14.83430873171789 SOHLA-1 1 33496U 09002E 12087.96420535 .00000325 00000-0 62570-4 0 06944 2 33496 098.0958 200.2805 0005764 304.6367 055.4290 14.69902109170312 SO-67 1 35870U 09049F 12088.40925926 .00003608 00000-0 15578-3 0 8121 2 35870 097.2419 126.9975 0003841 091.2833 091.7329 15.23118456140314 TISAT-1 1 36799U 10035E 12087.90474377 .00001416 00000-0 18654-3 0 08305 2 36799 098.0675 163.6467 0016378 077.8524 282.4518 14.81661093092451 STUDSAT 1 36801U 10035G 12088.49277774 .00003509 00000-0 43255-3 0 3660 2 36801 098.0738 164.6267 0013801 062.9603 297.3017 14.83502816 92554 FO-69 1 37227U 0 12087.42771165 .00000370 00000-0 60267-4 0 01393 2 37227 071.9690 132.3630 0015508 115.9976 244.2768 14.76978618024028 FO-70 1 37380U 0 12087.48735035 .00000331 00000-0 55006-4 0 01421 2 37380 071.9723 132.6887 0015929 112.1100 248.1731 14.76734090023922 ALMASAT-1 1 38078U 12006B 12088.48182670 .00018429 00000-0 52219-3 0 717 2 38078 069.4904 139.6950 0771993 349.4154 009.1494 14.06024453 6191 XATCOBEO 1 38082U 12006F 12088.49820746 .00039796 00000-0 10298-2 0 1223 2 38082 069.4909 139.3545 0766983 349.2398 009.3058 14.08839458 6198 NOAA-10 1 16969U 86073A 12087.92583847 -.00000021 00000-0 91893-5 0 08717 2 16969 098.5919 118.3950 0013114 111.1037 249.1546 14.27536440328274 NOAA-11 1 19531U 88089A 12088.24940115 -.00000181 00000-0 -71229-4 0 8667 2 19531 098.7324 175.1055 0011996 093.5292 266.7253 14.14957942213063 NOAA-12 1 21263U 91032A 12087.97691931 .00000014 00000-0 24645-4 0 03660 2 21263 098.7346 110.0014 0014797 077.4877 282.7956 14.25484828084982 MET-3/5 1 21655U 91056A 12087.63529051 .00000051 00000-0 10000-3 0 03702 2 21655 082.5588 209.7868 0013802 161.6448 198.5164 13.17033813991161 MET-2/21 1 22782U 93055A 12087.51646412 .00000016 00000-0 10605-5 0 03752 2 22782 082.5440 097.3151 0023368 025.4520 334.7797 13.83677594937879 OKEAN-4 1 23317U 94066A 12087.90210227 .00000812 00000-0 95241-4 0 8425 2 23317 082.5373 107.1902 0019577 260.0693 099.8314 14.83649980942754 NOAA-14 1 23455U 94089A 12087.94902574 .00000031 00000-0 39783-4 0 08466 2 23455 098.8283 172.4634 0009107 185.9447 174.1616 14.13885241889313 NOAA-15 1 25338U 98030A 12088.38307966 .00000027 00000-0 30307-4 0 2036 2 25338 098.6865 076.0767 0010463 349.0968 010.9991 14.25044860721341 RESURS 1 25394U 98043A 12088.54294802 .00000007 00000-0 20631-4 0 488 2 25394 098.3163 081.0454 0002283 101.8716 258.2718 14.24279160712926 FENGYUN1 1 25730U 99025A 12087.93322038 .00001214 00000-0 72029-3 0 5683 2 25730 098.8417 048.3574 0017607 240.9992 118.9405 14.09346464663164 OKEAN-0 1 25860U 99039A 12087.94564301 .00000403 00000-0 68617-4 0 05884 2 25860 097.9267 052.2970 0001495 093.1602 266.9775 14.74128904682602 NOAA-16 1 26536U 00055A 12087.66058142 .00000349 00000-0 21278-3 0 06875 2 26536 099.1036 128.4884 0009941 315.6708 044.3662 14.12718833593527 NOAA-17 1 27453U 02032A 12087.89102679 .00000203 00000-0 10548-3 0 06496 2 27453 098.3447 119.0060 0012397 039.3178 320.8878 14.24408973507187 NOAA-18 1 28654U 05018A 12087.76792161 .00000147 00000-0 10575-3 0 01261 2 28654 099.0395 045.2159 0014818 026.8682 333.3231 14.11624239353071 NOAA-19 1 33591U 09005A 12087.89928860 .00000275 00000-0 17661-3 0 03164 2 33591 098.8591 028.7218 0013275 250.5217 109.4564 14.11311942161544 HUBBLE 1 20580U 90037B 12088.01616448 .00001490 00000-0 97603-4 0 9716 2 20580 028.4720 314.6585 0003010 268.6534 091.3672 15.02311953 2516 ISS 1 25544U 98067A 12088.55601852 .00018472 00000-0 23143-3 0 2655 2 25544 051.6416 166.1861 0015617 206.0102 352.1545 15.59686678765447 CO-58 1 28895U 05043F 12087.62899679 .00000440 00000-0 99511-4 0 01357 2 28895 097.9248 317.4379 0018719 050.1880 310.0970 14.60535523341759 FALCON 1 30776U 07006E 12087.91366001 .00003319 00000-0 22029-3 0 3112 2 30776 035.4325 053.0301 0002336 001.1819 358.8906 15.06927314277983 MAST 1 31126U 07012K 12087.95722118 .00000408 00000-0 10139-3 0 04248 2 31126 097.8761 103.8026 0094208 004.5805 355.6238 14.54079859262462 CAPE1 1 31130U 07012P 12088.47539496 .00000620 00000-0 15122-3 0 4306 2 31130 097.8869 100.7248 0102489 015.7066 344.7290 14.52831853262052 COMPASS 1 32787U 08021E 12087.67655182 .00001786 00000-0 22231-3 0 02635 2 32787 097.8073 150.8020 0014744 331.1486 028.8933 14.83670127211720 AAUSAT2 1 32788U 08021F 12087.66315361 .00001341 00000-0 16738-3 0 02527 2 32788 097.8113 151.1267 0014081 332.6351 027.4138 14.83961187211747 DO-64 1 32789U 08021G 12087.71889867 .00002262 00000-0 26961-3 0 02679 2 32789 097.8195 152.9102 0013905 328.2281 031.8097 14.85217948211780 CO-66 1 32791U 08021J 12087.63568486 .00001099 00000-0 14105-3 0 02566 2 32791 097.8080 150.5641 0015075 331.1342 028.8999 14.83145540211658 RS-30 1 32953U 08025A 12088.23826990 .00000010 00000-0 00000 0 0 6486 2 32953 082.5068 345.4821 0019349 121.5970 238.7006 12.43021674174504 TACSAT-3 1 35001U 09028A 12087.74583042 .00202185 00000-0 78005-3 0 09259 2 35001 040.4457 214.0655 0011651 026.6683 333.4743 15.85777844161554 PHARMSAT 1 35002U 09028B 12088.57152688 .00066783 00000-0 53708-3 0 8401 2 35002 040.4638 217.7335 0002903 275.8509 084.1951 15.69961702161591 METEOR-M 1 35865U 09049A 12088.22357183 -.00000009 00000-0 15790-4 0 2730 2 35865 098.6640 144.0329 0001745 301.5027 058.5978 14.21858194131099 RS-38 1 35869U 09049E 12088.18610434 .00000023 00000-0 30104-4 0 2809 2 35869 098.6598 144.0045 0003823 292.0952 067.9821 14.22060558131103 JUGNU 1 37839U 11058B 12087.48076735 .00000619 00000-0 19019-3 0 1163 2 37839 019.9603 133.2274 0019401 043.4242 316.7688 14.12037981 23680 SRMSAT 1 37841U 11058D 12088.41487279 .00000264 00000-0 00000 0 0 1183 2 37841 019.9728 130.8565 0011675 023.4267 336.6693 14.10124577 23770 RAX-2 1 37853U 11061D 12087.97354212 .00002471 00000-0 20633-3 0 01449 2 37853 101.7172 091.2252 0249871 222.2380 135.9333 14.79251602022398 AUBIESAT 1 37854U 11061E 12088.48872981 .00002439 00000-0 20063-3 0 1367 2 37854 101.7166 092.1228 0251414 219.9733 138.2721 14.79579933 22450 HRBE 1 37855U 11061F 12088.56306375 .00002337 00000-0 19329-3 0 1355 2 37855 101.7197 092.2077 0251449 219.9600 138.2860 14.79468373 22469 RS-39 1 38051U 11062C 12088.44815382 .00006591 00000-0 29056-3 0 1933 2 38051 051.6419 184.1942 0011131 105.4282 349.3903 15.22928230 9669 E-STAR 1 38079U 12006C 12088.28256558 .00034063 00000-0 85095-3 0 1084 2 38079 069.4919 139.8433 0771307 349.6147 008.9770 14.08655466 6166 GOLIAT 1 38085U 12006J 12088.50959210 .00032289 00000-0 83716-3 0 1065 2 38085 069.4865 139.3775 0770521 349.2869 009.2655 14.08074427 6192 /EX